Home > Weather > Tel Aviv > Past weeks

Flag for Israel Past Weather in Tel Aviv, Israel — Yesterday and Last 2 Weeks

Now
68 °F

Passing clouds.


Feels Like: 68 °F
Forecast: 72 / 85 °F
Wind: 5 mph from South

Location: Ben Gurion International Airport

Current Time: May 25, 2016 at 4:28:06 AM

Latest Report: May 25, 2016 at 3:50 AM


Visibility: N/A

Pressure: 29.95 "Hg

Humidity: 78%

Dew Point: 61 °F

Location of Tel AvivLocation

Past Weather in Tel Aviv — Graph

°F

Tel Aviv Temperature Yesterday

Maximum temperature yesterday: 77 °F (at 1:50 PM)
Minimum temperature yesterday: 66 °F (at 2:20 AM)
Average temperature yesterday: 71 °F

High & Low Weather Summary for the Past Weeks

 TemperatureHumidityPressure
High106 °F (May 15, 12:50 PM)88% (May 11, 3:50 AM)30.01 "Hg (May 11, 3:50 AM)
Low59 °F (May 10, 4:50 AM)9% (May 22, 11:50 AM)29.71 "Hg (May 16, 5:50 PM)
Average75 °F55%29.92 "Hg
* Reported May 10 3:20 AM — May 25 3:20 AM, Tel Aviv, Weather by CustomWeather, © 2016

Note: Actual official high and low records may vary slightly from our data, if they occured in-between our weather recording intervals... More about our weather records

Advertising

Tel Aviv Weather History for the Previous 24 Hours

Scroll right to see more
 ConditionsComfort  
Time TempWeatherWind HumidityBarometerVisibility
3:20 AM
Wed, May 25
68 °FPassing clouds.6 mph78%29.95 "HgN/A
2:50 AM68 °FPassing clouds.5 mph78%29.95 "HgN/A
2:20 AM68 °FPassing clouds.6 mph78%29.95 "HgN/A
1:50 AM68 °FPassing clouds.5 mph78%29.95 "HgN/A
1:20 AM68 °FPassing clouds.6 mph78%29.98 "HgN/A
12:50 AM68 °FPassing clouds.5 mph78%29.98 "HgN/A
12:20 AM68 °FPassing clouds.6 mph78%29.98 "HgN/A
11:50 PM
Tue, May 24
70 °FPassing clouds.6 mph73%29.98 "HgN/A
11:20 PM70 °FPassing clouds.5 mph73%29.98 "HgN/A
10:50 PM70 °FPassing clouds.6 mph73%29.98 "HgN/A
10:20 PM70 °FPassing clouds.5 mph73%29.98 "HgN/A
9:50 PM70 °FPassing clouds.5 mph73%29.98 "HgN/A
9:20 PM70 °FPassing clouds.3 mph73%29.98 "HgN/A
8:50 PM70 °FPassing clouds.5 mph69%29.98 "HgN/A
8:20 PM70 °FScattered clouds.5 mph69%29.98 "HgN/A
7:50 PM72 °FPassing clouds.7 mph57%29.98 "HgN/A
7:20 PM72 °FPassing clouds.10 mph65%29.98 "HgN/A
6:50 PM72 °FScattered clouds.13 mph65%29.98 "HgN/A
6:20 PM73 °FScattered clouds.14 mph57%29.98 "HgN/A
5:50 PM73 °FScattered clouds.14 mph61%29.98 "HgN/A
5:20 PM73 °FScattered clouds.13 mph61%29.98 "HgN/A
4:50 PM73 °FScattered clouds.15 mph61%29.98 "HgN/A
4:20 PM75 °FPartly sunny.14 mph57%29.98 "HgN/A
3:50 PM77 °FPartly sunny.15 mph54%29.98 "HgN/A
3:20 PM75 °FScattered clouds.15 mph54%29.98 "HgN/A
2:50 PM75 °FPartly sunny.16 mph54%29.98 "HgN/A
2:20 PM75 °FPartly sunny.15 mph54%29.98 "HgN/A
1:50 PM77 °FPartly sunny.16 mph51%29.98 "HgN/A
1:20 PM75 °FPartly sunny.16 mph57%29.98 "HgN/A
12:50 PM73 °FPartly sunny.20 mph57%29.98 "HgN/A
12:20 PM73 °FPartly sunny.18 mph61%29.98 "HgN/A
11:50 AM75 °FPartly sunny.20 mph57%29.98 "HgN/A
11:20 AM75 °FPartly sunny.17 mph61%29.98 "HgN/A
10:50 AM75 °FPartly sunny.20 mph54%29.95 "HgN/A
10:20 AM73 °FPartly sunny.17 mph65%29.95 "HgN/A
9:50 AM73 °FPartly sunny.15 mph61%29.95 "HgN/A
9:20 AM70 °FPartly sunny.10 mph73%29.95 "HgN/A
8:50 AM68 °FLight rain. Broken clouds.12 mph78%29.95 "HgN/A
8:20 AM68 °FBroken clouds.13 mph78%29.95 "HgN/A
7:50 AM68 °FLight rain. Broken clouds.13 mph78%29.92 "HgN/A
7:20 AM70 °FBroken clouds.9 mph69%29.92 "HgN/A
6:50 AM70 °FBroken clouds.8 mph64%29.92 "HgN/A
6:20 AM68 °FPassing clouds.9 mph69%29.92 "HgN/A
5:50 AM68 °FPassing clouds.8 mph69%29.92 "HgN/A
5:20 AM68 °FPassing clouds.9 mph69%29.89 "HgN/A
4:50 AM68 °FPassing clouds.9 mph69%29.89 "HgN/A
4:20 AM68 °FPassing clouds.10 mph73%29.89 "HgN/A
Weather by CustomWeather, © 2016

See weather overviewHow to use our weather pages